world map with CAG marked

CAG - Airport

This information may not be accurate or current and is not valid for navigation or flight planning. No warranty of fitness for any purpose is made or implied.

flag of Italy

Donate via PayPal

Additional information is available on the NEW Great Circle Mapper

Location
City:  Cagliari, Sardinia, Italy
Name:Elmas
ICAO / IATA:LIEE / CAG

Details
Type:Airport (Aerodrome, Airfield)
Use:Public/Civil, Military
Latitude:39°15'05"N (39.251469)
Longitude:9°03'15"E (9.054283)
Datum:WGS 1984
Elevation:13 ft (4 m)
Runways:1
Longest:9196 × 148 ft (2803 × 45 m)

Time
Timezone:UTC+1 (DST+4)
Local Time:

Weather
METAR:LIEE  280950Z 29018G29KT 260V320 9999 SCT025 19/10 Q1012
TAF:LIEE  280500Z 2806/2906 28015KT 9999 SCT020= TAF LIEO 280500Z 2806/2906 22020G30KT 9999 SCT025

Related Locations
Nearby:
Farthest:CHT: 12010 mi / 19328 km
Waitangi [Tuuta], Chatham Islands, NZ

Find:

   beyond  
but within

Other Information
Maps:
Links:
Sources:

  

Airport Diagram

Airport diagram for CAG

Airport diagram (OBSOLETE) from NGA

 


Great Circle Mapper   Great Circle Mapper
Great Circle Mapper FAQ   Great Circle Mapper FAQ
  Karl's Home Page
KLSē   KLSē Home
   GC on Facebook
Airlines of the World   Airlines of the World
Donate via PayPal


Copyright © 2004-2015, Karl L. Swartz. All rights reserved.
All trademarks mentioned herein belong to their respective owners.

Please see credits for attribution and copyright information.

Karl Swartz <karl@kls2.com>
  Powered by FreeBSD
Valid HTML 4.01!
Labeled with ICRA
hCard Microformat
Geo Microformat